AXM6125 WMKP-WMKK

Flight info

Callsign AXM6125
Flight time 0h 40m
Altitude 27000
Route BOGUK DCT ANBIK Y507 KAKAK KAKAK1H
Aircraft A320/M-SDE3FGHIRWY/LB1

Departure

Time 2026-04-25 12:44
Airport Penang International Airport (WMKP)

Arrival

Time 2026-04-25 13:25
Airport Kuala Lumpur International Airport (WMKK)
Time Latitude Longitude Altitude Speed Heading
2026-04-25 12:15 5.29252 100.26669 23 ft 0 kts 311°
2026-04-25 12:34 5.29242 100.26680 24 ft 4 kts 310°
2026-04-25 12:35 5.29221 100.26709 23 ft 4 kts 300°
2026-04-25 12:35 5.29210 100.26733 23 ft 4 kts 274°
2026-04-25 12:35 5.29214 100.26751 23 ft 1 kts 221°
2026-04-25 12:38 5.29197 100.26736 25 ft 6 kts 222°
2026-04-25 12:39 5.29172 100.26714 25 ft 4 kts 221°
2026-04-25 12:39 5.29125 100.26672 24 ft 15 kts 222°
2026-04-25 12:39 5.29053 100.26607 23 ft 11 kts 221°
2026-04-25 12:39 5.28984 100.26602 23 ft 12 kts 145°
2026-04-25 12:40 5.28930 100.26658 24 ft 10 kts 133°
2026-04-25 12:40 5.28880 100.26666 23 ft 7 kts 208°
2026-04-25 12:40 5.28845 100.26637 24 ft 8 kts 221°
2026-04-25 12:40 5.28790 100.26588 23 ft 10 kts 219°
2026-04-25 12:41 5.28715 100.26578 24 ft 12 kts 166°
2026-04-25 12:41 5.28659 100.26619 23 ft 8 kts 126°
2026-04-25 12:41 5.28633 100.26685 23 ft 10 kts 91°
2026-04-25 12:41 5.28663 100.26732 24 ft 6 kts 42°
2026-04-25 12:42 5.28683 100.26750 23 ft 0 kts 42°
2026-04-25 12:42 5.28698 100.26763 26 ft 1 kts 41°
2026-04-25 12:42 5.28699 100.26764 23 ft 0 kts 41°
2026-04-25 12:43 5.29042 100.27075 27 ft 96 kts 43°
2026-04-25 12:44 5.29686 100.27661 24 ft 151 kts 42°
2026-04-25 12:44 5.30574 100.28455 140 ft 184 kts 40°
2026-04-25 12:44 5.32573 100.30195 1357 ft 194 kts 46°
2026-04-25 12:45 5.33172 100.31456 1692 ft 215 kts 86°
2026-04-25 12:45 5.33101 100.33023 1923 ft 236 kts 98°
2026-04-25 12:45 5.32451 100.36519 2941 ft 267 kts 101°
2026-04-25 12:46 5.32098 100.38371 3707 ft 273 kts 100°
2026-04-25 12:46 5.31768 100.40258 4502 ft 277 kts 99°
2026-04-25 12:46 5.31458 100.42152 4892 ft 281 kts 99°
2026-04-25 12:46 5.30899 100.43975 4998 ft 280 kts 117°
2026-04-25 12:47 5.29683 100.45519 5502 ft 284 kts 133°
2026-04-25 12:47 5.28309 100.46967 5910 ft 286 kts 134°
2026-04-25 12:47 5.26693 100.48122 6608 ft 286 kts 152°
2026-04-25 12:47 5.24914 100.49020 7437 ft 287 kts 152°
2026-04-25 12:48 5.23122 100.49928 8190 ft 290 kts 152°
2026-04-25 12:48 5.21307 100.50846 8909 ft 293 kts 152°
2026-04-25 12:48 5.19475 100.51769 9603 ft 297 kts 152°
2026-04-25 12:48 5.17622 100.52700 10297 ft 300 kts 152°
2026-04-25 12:49 5.16350 100.53333 10472 ft 316 kts 152°
2026-04-25 12:49 5.14312 100.54353 10650 ft 337 kts 152°
2026-04-25 12:49 5.11467 100.55778 11385 ft 345 kts 152°
2026-04-25 12:49 5.09306 100.56860 12052 ft 348 kts 152°
2026-04-25 12:50 5.07134 100.57947 12715 ft 351 kts 152°
2026-04-25 12:50 5.05681 100.58674 13129 ft 353 kts 152°
2026-04-25 12:50 5.02729 100.60156 13946 ft 357 kts 152°
2026-04-25 12:50 5.01250 100.60896 14338 ft 359 kts 152°
2026-04-25 12:51 4.99003 100.62017 14915 ft 363 kts 152°
2026-04-25 12:51 4.96737 100.63147 15477 ft 366 kts 152°
2026-04-25 12:51 4.94452 100.64291 16026 ft 369 kts 151°
2026-04-25 12:51 4.92145 100.65447 16554 ft 372 kts 151°
2026-04-25 12:52 4.89824 100.66609 17070 ft 375 kts 151°
2026-04-25 12:52 4.87477 100.67785 17591 ft 378 kts 151°
2026-04-25 12:52 4.85117 100.68965 18092 ft 381 kts 151°
2026-04-25 12:52 4.82740 100.70153 18582 ft 384 kts 151°
2026-04-25 12:53 4.80338 100.71353 19062 ft 387 kts 151°
2026-04-25 12:53 4.77922 100.72561 19530 ft 390 kts 151°
2026-04-25 12:53 4.75483 100.73779 19987 ft 393 kts 151°
2026-04-25 12:53 4.73026 100.75007 20476 ft 396 kts 151°
2026-04-25 12:54 4.70552 100.76244 20956 ft 399 kts 152°
2026-04-25 12:54 4.68058 100.77493 21373 ft 402 kts 152°
2026-04-25 12:54 4.65543 100.78751 21802 ft 406 kts 152°
2026-04-25 12:54 4.63008 100.80015 22241 ft 409 kts 152°
2026-04-25 12:55 4.60452 100.81290 22669 ft 411 kts 152°
2026-04-25 12:55 4.58752 100.82138 22920 ft 413 kts 152°
2026-04-25 12:55 4.55297 100.83859 23424 ft 417 kts 152°
2026-04-25 12:55 4.52727 100.85140 23780 ft 420 kts 152°
2026-04-25 12:56 4.50098 100.86452 24129 ft 423 kts 152°
2026-04-25 12:56 4.47425 100.87789 24478 ft 425 kts 152°
2026-04-25 12:56 4.44810 100.89101 24806 ft 427 kts 152°
2026-04-25 12:56 4.42142 100.90438 25133 ft 430 kts 152°
2026-04-25 12:57 4.39456 100.91779 25444 ft 432 kts 152°
2026-04-25 12:57 4.36758 100.93124 25746 ft 434 kts 152°
2026-04-25 12:57 4.34045 100.94479 26047 ft 437 kts 152°
2026-04-25 12:57 4.31322 100.95839 26346 ft 438 kts 152°
2026-04-25 12:58 4.28585 100.97204 26645 ft 440 kts 152°
2026-04-25 12:58 4.25841 100.98572 26839 ft 442 kts 152°
2026-04-25 12:58 4.23121 100.99927 26879 ft 429 kts 152°
2026-04-25 12:58 4.20468 101.01251 26878 ft 424 kts 152°
2026-04-25 12:59 4.17845 101.02561 26882 ft 421 kts 152°
2026-04-25 12:59 4.15219 101.03873 26879 ft 421 kts 152°
2026-04-25 12:59 4.12602 101.05181 26881 ft 421 kts 152°
2026-04-25 12:59 4.09986 101.06485 26879 ft 420 kts 152°
2026-04-25 13:00 4.07367 101.07794 26879 ft 420 kts 152°
2026-04-25 13:00 4.05632 101.08660 26872 ft 420 kts 152°
2026-04-25 13:00 4.02129 101.10410 26866 ft 420 kts 152°
2026-04-25 13:00 3.99512 101.11716 26870 ft 420 kts 152°
2026-04-25 13:01 3.96894 101.13018 26865 ft 420 kts 152°
2026-04-25 13:01 3.94271 101.14321 26864 ft 420 kts 152°
2026-04-25 13:01 3.91654 101.15625 26859 ft 420 kts 152°
2026-04-25 13:01 3.89038 101.16931 26864 ft 420 kts 152°
2026-04-25 13:02 3.86423 101.18238 26860 ft 420 kts 152°
2026-04-25 13:02 3.83808 101.19543 26868 ft 420 kts 152°
2026-04-25 13:02 3.81194 101.20845 26869 ft 420 kts 152°
2026-04-25 13:02 3.78535 101.22075 26877 ft 421 kts 159°
2026-04-25 13:03 3.75699 101.22830 26866 ft 426 kts 170°
2026-04-25 13:03 3.72707 101.23038 26882 ft 438 kts 178°
2026-04-25 13:03 3.69638 101.23081 26869 ft 441 kts 178°
2026-04-25 13:03 3.66594 101.23123 26449 ft 435 kts 178°
2026-04-25 13:04 3.63580 101.23163 25897 ft 431 kts 178°
2026-04-25 13:04 3.60596 101.23205 25356 ft 428 kts 178°
2026-04-25 13:04 3.57631 101.23251 24826 ft 424 kts 177°
2026-04-25 13:04 3.54699 101.23298 24416 ft 417 kts 177°
2026-04-25 13:05 3.51827 101.23340 24109 ft 409 kts 177°
2026-04-25 13:05 3.49010 101.23381 23793 ft 401 kts 177°
2026-04-25 13:05 3.46247 101.23420 23492 ft 394 kts 177°
2026-04-25 13:05 3.43522 101.23471 23138 ft 390 kts 175°
2026-04-25 13:06 3.40884 101.23984 22537 ft 386 kts 158°
2026-04-25 13:06 3.38374 101.24913 22067 ft 383 kts 157°
2026-04-25 13:06 3.35880 101.25840 21583 ft 382 kts 157°
2026-04-25 13:06 3.33399 101.26761 21104 ft 380 kts 157°
2026-04-25 13:07 3.30930 101.27677 20625 ft 377 kts 157°
2026-04-25 13:07 3.28472 101.28587 20148 ft 375 kts 157°
2026-04-25 13:07 3.26034 101.29492 19676 ft 373 kts 157°
2026-04-25 13:07 3.23607 101.30393 19207 ft 371 kts 157°
2026-04-25 13:08 3.21192 101.31290 18742 ft 369 kts 157°
2026-04-25 13:08 3.18792 101.32183 18277 ft 367 kts 157°
2026-04-25 13:08 3.16414 101.33073 17824 ft 364 kts 157°
2026-04-25 13:08 3.14104 101.34060 17470 ft 356 kts 147°
2026-04-25 13:09 3.12003 101.35325 17216 ft 349 kts 146°
2026-04-25 13:09 3.09946 101.36567 16958 ft 343 kts 146°
2026-04-25 13:09 3.07919 101.37791 16691 ft 338 kts 146°
2026-04-25 13:09 3.05916 101.39002 16301 ft 336 kts 146°
2026-04-25 13:10 3.03921 101.40208 15886 ft 333 kts 146°
2026-04-25 13:10 3.01934 101.41405 15481 ft 332 kts 147°
2026-04-25 13:10 2.99963 101.42598 15076 ft 331 kts 146°
2026-04-25 13:10 2.98006 101.43784 14677 ft 327 kts 147°
2026-04-25 13:11 2.96063 101.44965 14279 ft 326 kts 147°
2026-04-25 13:11 2.94125 101.46143 13878 ft 325 kts 147°
2026-04-25 13:11 2.92197 101.47314 13476 ft 324 kts 147°
2026-04-25 13:11 2.90276 101.48481 13076 ft 323 kts 147°
2026-04-25 13:12 2.88358 101.49643 12670 ft 322 kts 147°
2026-04-25 13:12 2.86444 101.50800 12271 ft 321 kts 147°
2026-04-25 13:12 2.84537 101.51952 11861 ft 319 kts 148°
2026-04-25 13:12 2.83284 101.52710 11587 ft 318 kts 147°
2026-04-25 13:13 2.80757 101.54243 11041 ft 317 kts 147°
2026-04-25 13:13 2.78880 101.55382 10700 ft 313 kts 147°
2026-04-25 13:13 2.77030 101.56505 10353 ft 310 kts 147°
2026-04-25 13:13 2.75196 101.57616 10067 ft 305 kts 147°
2026-04-25 13:14 2.73398 101.58705 9821 ft 298 kts 147°
2026-04-25 13:14 2.71629 101.59776 9560 ft 298 kts 147°
2026-04-25 13:14 2.69859 101.60849 9179 ft 296 kts 147°
2026-04-25 13:14 2.68100 101.61915 8784 ft 295 kts 147°
2026-04-25 13:15 2.66349 101.62976 8389 ft 294 kts 147°
2026-04-25 13:15 2.64608 101.64031 7995 ft 292 kts 147°
2026-04-25 13:15 2.62901 101.65070 7601 ft 281 kts 146°
2026-04-25 13:15 2.61293 101.66097 7235 ft 268 kts 145°
2026-04-25 13:16 2.59756 101.67117 6879 ft 264 kts 144°
2026-04-25 13:16 2.58239 101.68139 6523 ft 262 kts 144°
2026-04-25 13:16 2.56735 101.69155 6169 ft 260 kts 144°
2026-04-25 13:16 2.55242 101.70160 5820 ft 258 kts 144°
2026-04-25 13:17 2.53761 101.71151 5476 ft 254 kts 144°
2026-04-25 13:17 2.52295 101.72132 5124 ft 253 kts 143°
2026-04-25 13:17 2.50847 101.73107 4769 ft 250 kts 143°
2026-04-25 13:17 2.49410 101.74069 4552 ft 243 kts 143°
2026-04-25 13:18 2.48058 101.75037 4531 ft 235 kts 132°
2026-04-25 13:18 2.47131 101.76355 4349 ft 234 kts 109°
2026-04-25 13:18 2.46883 101.77961 3772 ft 235 kts 81°
2026-04-25 13:18 2.47377 101.79435 3444 ft 223 kts 58°
2026-04-25 13:19 2.48413 101.80552 3200 ft 219 kts 35°
2026-04-25 13:19 2.49804 101.81137 2986 ft 221 kts 13°
2026-04-25 13:19 2.51334 101.81393 2770 ft 225 kts 12°
2026-04-25 13:19 2.51858 101.81477 2698 ft 227 kts 11°
2026-04-25 13:20 2.54373 101.80778 2531 ft 238 kts 319°
2026-04-25 13:20 2.55584 101.79677 2522 ft 226 kts 324°
2026-04-25 13:20 2.56848 101.78819 2562 ft 209 kts 330°
2026-04-25 13:20 2.58020 101.78113 2542 ft 186 kts 332°
2026-04-25 13:21 2.59124 101.77508 2520 ft 178 kts 332°
2026-04-25 13:21 2.60163 101.76874 2463 ft 169 kts 330°
2026-04-25 13:21 2.61126 101.76249 2300 ft 162 kts 330°
2026-04-25 13:21 2.62042 101.75642 2104 ft 155 kts 329°
2026-04-25 13:22 2.62925 101.75054 1901 ft 150 kts 329°
2026-04-25 13:22 2.63788 101.74477 1716 ft 148 kts 328°
2026-04-25 13:22 2.64643 101.73904 1519 ft 148 kts 328°
2026-04-25 13:23 2.66342 101.72766 1124 ft 146 kts 328°
2026-04-25 13:23 2.67184 101.72201 933 ft 145 kts 327°
2026-04-25 13:23 2.67752 101.71821 805 ft 145 kts 327°
2026-04-25 13:23 2.68862 101.71072 553 ft 145 kts 327°
2026-04-25 13:24 2.69697 101.70520 343 ft 144 kts 328°
2026-04-25 13:24 2.70529 101.69966 176 ft 143 kts 326°
2026-04-25 13:24 2.71341 101.69413 41 ft 132 kts 326°
2026-04-25 13:24 2.71940 101.69016 38 ft 67 kts 326°
2026-04-25 13:25 2.72251 101.68804 35 ft 42 kts 326°
2026-04-25 13:25 2.72457 101.68669 37 ft 29 kts 335°
2026-04-25 13:25 2.72630 101.68627 39 ft 25 kts 353°
2026-04-25 13:25 2.72809 101.68606 38 ft 27 kts 353°
2026-04-25 13:26 2.72976 101.68526 39 ft 27 kts 326°
2026-04-25 13:26 2.73140 101.68415 38 ft 29 kts 326°
2026-04-25 13:26 2.73307 101.68302 38 ft 30 kts 326°
2026-04-25 13:26 2.73484 101.68183 38 ft 31 kts 326°
2026-04-25 13:27 2.73612 101.68097 38 ft 12 kts 332°
2026-04-25 13:27 2.73681 101.68121 38 ft 10 kts 52°
2026-04-25 13:27 2.73711 101.68166 40 ft 7 kts 57°
2026-04-25 13:27 2.73752 101.68226 42 ft 15 kts 54°
2026-04-25 13:28 2.73788 101.68278 42 ft 0 kts 56°
2026-04-25 13:29 2.73808 101.68308 40 ft 12 kts 55°
2026-04-25 13:30 2.73884 101.68422 42 ft 0 kts 56°
2026-04-25 13:30 2.73891 101.68430 39 ft 5 kts 52°
2026-04-25 13:31 2.73942 101.68407 42 ft 4 kts 323°
2026-04-25 13:31 2.73961 101.68394 42 ft 3 kts 326°
2026-04-25 13:31 2.73971 101.68387 40 ft 0 kts 326°
2026-04-25 13:31 2.73973 101.68386 40 ft 0 kts 328°
2026-04-25 13:32 2.73974 101.68386 42 ft 0 kts 328°